Weather History for Philip, SD

Change the Weather History Date:

Sunday, December 23, 2012

  Actual Average Record
Temperature  
Mean Temperature 7 °F 22 °F  
Max Temperature 14 °F 34 °F 62 °F (1950)
Min Temperature -1 °F 9 °F -28 °F (2013)
Degree Days  
Heating Degree Days 58 43  
Month to date heating degree days 859 951  
Since 1 July heating degree days 2332 2586  
Cooling Degree Days 0 0  
Month to date cooling degree days 0 0  
Year to date cooling degree days 1202 818  
Moisture  
Dew Point 4 °F    
Average Humidity 81    
Maximum Humidity 91    
Minimum Humidity 70    
Precipitation  
Precipitation T in 0.01 in 0.08 in (2005)
Month to date precipitation 0.19 0.32  
Year to date precipitation 7.14 17.24  
Sea Level Pressure  
Sea Level Pressure 30.06 in    
Wind  
Wind Speed 8 mph (NNE)    
Max Wind Speed 17 mph    
Max Gust Speed 22 mph    
Visibility 7 miles    
Events Snow    
T = Trace of Precipitation, MM = Missing Value Source: NWS Daily Summary

Daily Weather History Graph

Daily Weather History Graph

Search for Another Location

Airport:

Trip Planner

Search our weather history database for the weather conditions in past years. The results will help you decide how hot, cold, wet, or windy it might be!

Date:

Astronomy

Dec. 23, 2012 Rise Set
Actual Time 7:19 AM MST 4:12 PM MST
Civil Twilight 6:46 AM MST 4:45 PM MST
Nautical Twilight 6:09 AM MST 5:22 PM MST
Astronomical Twilight 5:34 AM MST 5:57 PM MST
Moon 1:08 PM MST (12/23) 2:59 AM MST (12/23)
Length of Visible Light 9h 59m
Length of Day
8h 53m
Waxing Gibbous, 82% of the Moon is Illuminated
Dec 23
Waxing Gibbous
Dec 28
Full
Jan 4
Last Quarter
Jan 11
New
Jan 18
First Quarter

Hourly Weather History & Observations

Time (MST) Temp. Windchill Dew Point Humidity Pressure Visibility Wind Dir Wind Speed Gust Speed Precip Events Conditions
12:55 AM 7.0 °F -5.7 °F 5.0 °F 92% 30.11 in 10.0 mi East 8.1 mph - N/A   Mostly Cloudy
1:12 AM 8.6 °F -6.3 °F 5.0 °F 85% 29.99 in 10.0 mi East 11.5 mph - N/A   Overcast
1:55 AM 8.1 °F -6.2 °F 6.1 °F 92% 30.09 in 10.0 mi East 10.4 mph - N/A   Overcast
2:55 AM 8.1 °F -6.2 °F 6.1 °F 92% 30.07 in 8.0 mi East 10.4 mph - N/A   Overcast
3:55 AM 9.0 °F -5.9 °F 6.1 °F 88% 30.04 in 7.0 mi East 11.5 mph - N/A   Overcast
4:55 AM 10.0 °F -5.2 °F 7.0 °F 87% 30.01 in 8.0 mi ESE 12.7 mph - N/A   Overcast
5:55 AM 10.0 °F -5.2 °F 7.0 °F 87% 30.00 in 7.0 mi East 12.7 mph - N/A   Overcast
6:33 AM 10.4 °F -4.1 °F 8.6 °F 92% 29.91 in 5.0 mi East 11.5 mph - N/A   Overcast
6:55 AM 10.0 °F -3.7 °F 7.0 °F 87% 30.01 in 5.0 mi East 10.4 mph - 0.00 in Snow Light Snow
7:41 AM 8.6 °F -5.5 °F 6.8 °F 92% 29.91 in 1.8 mi ENE 10.4 mph - 0.00 in Snow Light Snow
7:55 AM 9.0 °F -5.1 °F 7.0 °F 92% 30.04 in 1.5 mi NE 10.4 mph - 0.00 in Snow Light Snow
8:02 AM 8.6 °F -7.0 °F 6.8 °F 92% 29.92 in 1.2 mi NE 12.7 mph - 0.00 in Snow Light Snow
8:47 AM 8.6 °F -5.5 °F 6.8 °F 92% 29.93 in 1.0 mi ENE 10.4 mph - 0.00 in Snow Light Snow
8:55 AM 9.0 °F -4.2 °F 6.1 °F 88% 30.05 in 1.0 mi NE 9.2 mph - 0.00 in Snow Light Snow
9:55 AM 10.0 °F -0.9 °F 6.1 °F 84% 30.08 in 2.0 mi NE 6.9 mph - 0.00 in Snow Light Snow
10:10 AM 10.4 °F 2.2 °F 6.8 °F 85% 29.97 in 1.5 mi NE 4.6 mph - 0.00 in Snow Light Snow
10:22 AM 10.4 °F -0.4 °F 6.8 °F 85% 29.98 in 1.5 mi NNE 6.9 mph - 0.00 in Snow Light Snow
10:40 AM 10.4 °F -0.4 °F 5.0 °F 79% 29.98 in 2.0 mi North 6.9 mph - 0.00 in Snow Light Snow
10:55 AM 10.0 °F -0.9 °F 6.1 °F 84% 30.11 in 3.0 mi North 6.9 mph - 0.00 in Snow Light Snow
11:20 AM 10.4 °F -0.4 °F 6.8 °F 85% 29.99 in 2.5 mi North 6.9 mph - 0.00 in Snow Light Snow
11:55 AM 10.9 °F -0.8 °F 6.1 °F 81% 30.13 in 3.0 mi NNW 8.1 mph - 0.00 in Snow Light Snow
12:55 PM 14.0 °F -0.8 °F 6.1 °F 71% 30.12 in 10.0 mi NW 13.8 mph - 0.00 in   Overcast
1:19 PM 14.0 °F 0.5 °F 6.8 °F 73% 30.00 in 10.0 mi NNW 11.5 mph - N/A   Scattered Clouds
1:55 PM 12.9 °F 1.6 °F 6.1 °F 74% 30.12 in 10.0 mi North 8.1 mph - N/A   Partly Cloudy
2:55 PM 12.9 °F 3.8 °F 5.0 °F 71% 30.13 in 10.0 mi North 5.8 mph - N/A   Clear
3:55 PM 10.0 °F 3.6 °F 3.9 °F 76% 30.14 in 10.0 mi North 3.5 mph - N/A   Clear
4:55 PM 10.0 °F 1.8 °F 5.0 °F 80% 30.14 in 10.0 mi WSW 4.6 mph - N/A   Overcast
5:55 PM 6.1 °F -4.3 °F 1.9 °F 83% 30.14 in 10.0 mi WSW 5.8 mph - N/A   Clear
6:55 PM 3.9 °F - 1.0 °F 88% 30.17 in 10.0 mi Calm Calm - N/A   Mostly Cloudy
7:55 PM 3.9 °F -5.3 °F 1.0 °F 88% 30.17 in 10.0 mi WNW 4.6 mph - N/A   Scattered Clouds
8:12 PM 5.0 °F -2.1 °F 1.4 °F 85% 30.04 in 10.0 mi West 3.5 mph - N/A   Mostly Cloudy
8:51 PM 3.2 °F -7.8 °F -0.4 °F 85% 30.05 in 10.0 mi West 5.8 mph - N/A   Scattered Clouds
8:55 PM 3.0 °F -8.0 °F -0.0 °F 87% 30.18 in 10.0 mi West 5.8 mph - N/A   Mostly Cloudy
9:32 PM 1.4 °F -9.9 °F -2.2 °F 85% 30.04 in 10.0 mi West 5.8 mph - N/A   Scattered Clouds
9:55 PM 1.0 °F -11.7 °F -2.9 °F 83% 30.19 in 10.0 mi WSW 6.9 mph - N/A   Partly Cloudy
10:55 PM -0.0 °F -11.6 °F -2.9 °F 88% 30.20 in 10.0 mi West 5.8 mph - N/A   Clear
11:55 PM -0.9 °F - -5.1 °F 83% 30.21 in 10.0 mi Calm Calm - N/A   Clear